Stations météo

réclame
Mon MeteoGroup
Skillinge, Suède (2625): Température de l'air & dewpoint: 14.01.2018 00:00:00 - 20.01.2018 00:00:00 (CET)Skillinge, Suède (2625): Vitesse du vent & gusts: 14.01.2018 00:00:00 - 20.01.2018 00:00:00 (CET)Skillinge, Suède (2625): Direction du vent: 14.01.2018 00:00:00 - 20.01.2018 00:00:00 (CET)Skillinge, Suède (2625): reduced air pressure: 14.01.2018 00:00:00 - 20.01.2018 00:00:00 (CET)Skillinge, Suède (2625): visibility: 14.01.2018 00:00:00 - 20.01.2018 00:00:00 (CET)Skillinge, Suède (2625): Quantités de précipitations: 14.01.2018 00:00:00 - 20.01.2018 00:00:00 (CET)
Date & Time tt [°C] td [°C] ff [km/h] ff [knt] fx [km/h] fx [knt] dd ppp [hPa] vv [km] rr [mm]
20.01.2018 00:00:00 - - - - - - - - - -
19.01.2018 23:00:00 1,2 0,5 8 5 12 6 WSW 1005,4 31 0,1
19.01.2018 22:00:00 0,9 0,2 0 0 12 6 N 1005,3 17 0,4
19.01.2018 21:00:00 0,7 0,0 0 0 5 3 N 1005,2 50 0,0
19.01.2018 20:00:00 0,8 -0,1 3 2 26 14 SSW 1004,9 50 0,0
19.01.2018 19:00:00 0,9 -0,1 3 2 26 14 WSW 1004,8 6 0,2
19.01.2018 18:00:00 0,3 -0,8 3 2 6 4 SW 1004,6 23 0,0
19.01.2018 17:00:00 0,7 -0,8 3 2 6 4 W 1004,5 34 0,0
19.01.2018 16:00:00 0,8 -1,1 5 3 7 4 WSW 1004,2 50 0,0
19.01.2018 15:00:00 2,5 -0,8 3 2 7 4 SW 1003,8 50 0,0
19.01.2018 14:00:00 2,5 -0,4 2 1 9 5 SSE 1003,6 49 0,0
19.01.2018 13:00:00 2,0 -0,9 4 2 9 5 ENE 1003,4 50 0,0
19.01.2018 12:00:00 1,8 -0,8 4 2 8 5 NE 1003,3 50 0,0
19.01.2018 11:00:00 1,3 -1,6 5 3 10 6 NE 1002,7 47 0,0
19.01.2018 10:00:00 0,5 -1,6 3 2 11 6 NNE 1002,0 50 0,0
19.01.2018 09:00:00 -0,2 -1,5 8 5 11 6 NNW 1001,2 39 0,0
19.01.2018 08:00:00 -0,4 -1,5 7 4 11 6 NW 1000,4 27 0,0
19.01.2018 07:00:00 -0,3 -1,4 7 4 11 6 NW 999,5 37 0,0
19.01.2018 06:00:00 -0,2 -1,2 8 4 11 6 WNW 999,1 39 0,0
19.01.2018 05:00:00 -0,2 -1,0 6 3 11 6 W 998,6 20 0,0
19.01.2018 04:00:00 -0,2 -1,0 3 2 10 6 WNW 997,9 30 0,0
19.01.2018 03:00:00 0,1 -1,0 5 3 13 7 NW 997,5 37 0,0
19.01.2018 02:00:00 0,4 -0,7 6 4 20 11 WNW 996,8 37 0,0
19.01.2018 01:00:00 0,8 -0,5 7 4 20 11 N 995,9 34 0,0
19.01.2018 00:00:00 0,9 -0,3 8 4 24 13 N 995,2 25 0,0
18.01.2018 23:00:00 1,6 0,3 12 7 27 15 N 994,3 34 0,0
18.01.2018 22:00:00 1,9 0,7 14 8 29 15 N 993,2 46 0,2
18.01.2018 21:00:00 1,4 0,2 14 8 33 18 NE 992,2 2,4 0,8
18.01.2018 20:00:00 2,7 1,2 23 13 33 18 E 990,9 15 0,0
18.01.2018 19:00:00 3,3 0,7 27 14 32 18 ENE 989,8 21 0,0
18.01.2018 18:00:00 3,3 0,7 25 13 33 18 E 988,9 20 0,0
18.01.2018 17:00:00 3,3 1,0 28 15 33 18 E 988,3 19 0,0
18.01.2018 16:00:00 3,2 0,8 24 13 30 16 E 988,0 16 0,0
18.01.2018 15:00:00 2,8 0,9 23 13 30 16 E 988,1 18 0,1
18.01.2018 14:00:00 2,6 1,0 15 8 32 17 SE 988,6 15 0,1
18.01.2018 13:00:00 2,6 0,3 14 8 32 17 SSE 989,4 13 0,0
18.01.2018 12:00:00 2,7 0,1 22 12 31 17 S 990,3 33 0,0
18.01.2018 11:00:00 1,8 1,2 15 8 31 17 S 991,6 8 0,9
18.01.2018 10:00:00 2,4 1,4 9 5 17 9 SSE 992,5 28 0,0
18.01.2018 09:00:00 1,1 0,4 3 1 13 7 S 993,1 18 0,0
18.01.2018 08:00:00 -0,8 -1,6 4 2 11 6 SW 994,0 20 0,0
18.01.2018 07:00:00 -1,0 -2,0 4 2 18 10 W 994,0 28 0,0
18.01.2018 06:00:00 0,0 -1,1 10 5 18 10 W 994,5 43 0,0
18.01.2018 05:00:00 -0,9 -2,0 5 3 26 14 W 994,8 38 0,0
18.01.2018 04:00:00 -0,2 -2,3 8 4 26 14 WSW 995,0 50 0,0
18.01.2018 03:00:00 0,2 -1,4 11 6 20 11 W 995,1 50 0,0
18.01.2018 02:00:00 -0,1 -1,1 8 5 24 13 SW 995,0 20 0,0
18.01.2018 01:00:00 0,0 -1,4 10 5 24 13 WSW 994,8 39 0,0
18.01.2018 00:00:00 0,6 -0,9 13 7 22 12 WSW 994,9 34 0,0
17.01.2018 23:00:00 0,6 -0,5 14 8 22 12 WSW 994,3 19 0,0
17.01.2018 22:00:00 0,5 -0,5 13 7 22 12 WSW 993,8 22 0,0
17.01.2018 21:00:00 0,4 -0,9 11 6 22 12 W 993,3 27 0,0
17.01.2018 20:00:00 0,6 -0,3 13 7 19 11 W 992,7 18 0,0
17.01.2018 19:00:00 -0,3 -1,0 9 5 16 8 W 992,2 18 0,0
17.01.2018 18:00:00 0,0 -0,8 9 5 13 7 W 991,6 14 0,0
17.01.2018 17:00:00 0,3 -0,4 9 5 13 7 W 990,9 28 0,0
17.01.2018 16:00:00 0,6 -0,3 6 4 15 8 W 990,3 16 0,0
17.01.2018 15:00:00 1,9 0,6 8 5 15 8 W 989,7 27 0,0
17.01.2018 14:00:00 1,9 0,9 8 4 16 9 W 989,2 33 0,0
17.01.2018 13:00:00 2,3 1,0 11 6 16 9 WSW 988,6 45 0,0
17.01.2018 12:00:00 1,6 0,9 11 6 15 8 WSW 988,3 31 0,0
17.01.2018 11:00:00 0,5 -0,1 5 3 11 6 WSW 987,9 25 0,0
17.01.2018 10:00:00 0,5 -0,1 6 4 11 6 W 987,4 25 0,0
17.01.2018 09:00:00 0,2 -0,4 8 4 10 5 WSW 987,1 21 0,0
17.01.2018 08:00:00 0,3 -0,4 5 3 10 5 WSW 986,3 18 0,0
17.01.2018 07:00:00 0,6 -0,3 4 2 14 7 WSW 985,9 10 0,0
17.01.2018 06:00:00 0,6 -0,7 6 3 20 11 WSW 985,7 32 0,0
17.01.2018 05:00:00 1,5 0,3 8 5 24 13 W 985,5 24 0,0
17.01.2018 04:00:00 1,4 -0,1 10 5 24 13 W 985,5 35 0,0
17.01.2018 03:00:00 1,6 0,4 13 7 24 13 WSW 985,4 27 0,0
17.01.2018 02:00:00 1,8 0,2 13 7 21 12 W 985,2 42 0,0
17.01.2018 01:00:00 2,0 0,5 10 5 22 12 W 985,2 47 0,0
17.01.2018 00:00:00 1,9 0,4 13 7 22 12 WSW 985,1 - 0,0
16.01.2018 23:00:00 1,3 0,6 10 5 22 12 WSW 984,9 31 0,1
16.01.2018 22:00:00 1,5 0,2 11 6 19 10 WSW 984,7 45 0,0
16.01.2018 21:00:00 1,4 0,2 8 4 23 12 WSW 984,7 44 0,0
16.01.2018 20:00:00 1,9 0,7 6 4 29 16 SW 984,9 49 0,0
16.01.2018 19:00:00 2,9 1,7 13 7 37 20 SW 984,9 26 0,2
16.01.2018 18:00:00 2,4 1,2 16 9 37 20 SW 984,9 6 0,3
16.01.2018 17:00:00 4,0 2,8 24 13 35 19 SSW 985,0 16 0,0
16.01.2018 16:00:00 4,1 2,9 26 14 39 21 SSW 985,1 17 0,0
16.01.2018 15:00:00 4,1 2,9 26 14 39 21 SSW 985,2 15 0,0
16.01.2018 14:00:00 4,0 3,1 30 16 45 24 SSW 985,4 12 0,0
16.01.2018 13:00:00 4,0 2,8 28 15 46 25 SSW 985,7 12 0,0
16.01.2018 12:00:00 3,9 3,0 33 18 51 28 SSW 986,0 13 0,0
16.01.2018 11:00:00 3,7 2,8 37 20 56 31 SSW 986,4 8 0,0
16.01.2018 10:00:00 3,2 2,2 42 23 61 33 S 986,3 17 0,0
16.01.2018 09:00:00 2,9 1,7 46 25 67 36 S 986,4 18 0,4
16.01.2018 08:00:00 2,2 1,5 49 27 72 39 S 986,6 5 0,9
16.01.2018 07:00:00 1,4 1,0 50 27 76 41 S 987,0 3,4 1,1
16.01.2018 06:00:00 1,3 0,7 55 30 76 41 S 987,5 3,4 0,6
16.01.2018 05:00:00 1,2 0,6 49 26 74 40 S 988,9 2,8 0,8
16.01.2018 04:00:00 1,9 0,6 46 25 68 37 SSE 990,0 6 0,3
16.01.2018 03:00:00 2,0 0,2 39 21 63 34 SSE 992,1 9 0,3
16.01.2018 02:00:00 1,9 -0,2 39 21 67 36 SSE 993,7 6 0,1
16.01.2018 01:00:00 2,3 -0,3 44 24 69 37 S 995,3 8 0,0
16.01.2018 00:00:00 2,5 -0,4 48 26 69 37 S 996,6 10 0,0
15.01.2018 23:00:00 2,2 -0,6 46 25 66 36 S 998,5 10 0,0
15.01.2018 22:00:00 2,2 -0,7 41 22 66 35 S 1000,4 9 0,0
15.01.2018 21:00:00 1,9 -0,8 41 22 68 37 S 1002,1 9 0,0
15.01.2018 20:00:00 1,8 -1,1 47 25 68 37 S 1003,7 9 0,0
15.01.2018 19:00:00 1,6 -1,5 41 22 65 35 S 1005,2 10 0,0
15.01.2018 18:00:00 1,6 -1,5 41 22 62 34 S 1006,5 10 0,0
15.01.2018 17:00:00 1,6 -1,3 40 22 61 33 S 1008,0 11 0,0
15.01.2018 16:00:00 1,3 -1,9 41 22 61 33 S 1009,3 11 0,0
15.01.2018 15:00:00 1,2 -1,5 35 19 58 31 S 1010,8 11 0,0
15.01.2018 14:00:00 0,6 -2,3 41 22 58 31 S 1012,4 12 0,0
15.01.2018 13:00:00 0,9 -1,8 31 17 59 32 SSE 1014,0 13 0,0
15.01.2018 12:00:00 0,2 -3,4 41 22 59 32 S 1016,0 16 0,0
15.01.2018 11:00:00 0,3 -2,4 36 19 51 27 S 1017,8 13 0,0
15.01.2018 10:00:00 0,2 -2,0 33 18 48 26 S 1018,9 11 0,0
15.01.2018 09:00:00 -0,1 -2,6 29 16 48 26 S 1020,0 12 0,0
15.01.2018 08:00:00 0,0 -2,7 34 18 45 24 S 1020,9 15 0,0
15.01.2018 07:00:00 0,0 -3,0 29 16 44 24 S 1021,6 14 0,0
15.01.2018 06:00:00 0,1 -3,1 28 15 40 22 S 1022,3 15 0,0
15.01.2018 05:00:00 0,1 -3,1 29 16 40 22 S 1023,1 15 0,0
15.01.2018 04:00:00 -0,2 -4,1 22 12 39 21 S 1024,2 15 0,0
15.01.2018 03:00:00 -0,6 -4,5 26 14 39 21 S 1025,4 17 0,0
15.01.2018 02:00:00 -0,6 -4,0 23 12 39 21 S 1026,1 18 0,0
15.01.2018 01:00:00 -0,9 -4,1 25 13 42 23 S 1026,9 20 0,0
15.01.2018 00:00:00 -1,4 -4,9 23 12 42 23 S 1027,7 22 0,0
14.01.2018 23:00:00 -1,2 -4,5 18 10 38 21 SSE 1028,3 17 0,0
14.01.2018 22:00:00 -1,4 -5,1 16 9 36 20 SSE 1029,0 19 0,0
14.01.2018 21:00:00 -1,4 -5,1 21 12 36 19 S 1029,1 20 0,0
14.01.2018 20:00:00 -1,3 -5,0 19 11 34 19 SE 1029,7 15 0,0
14.01.2018 19:00:00 -1,6 -5,6 17 9 37 20 SE 1030,2 19 0,0
14.01.2018 18:00:00 -1,7 -5,7 22 12 37 20 SE 1030,8 15 0,0
14.01.2018 17:00:00 -1,7 -5,5 14 8 32 17 SSE 1031,1 17 0,0
14.01.2018 16:00:00 -1,6 -5,3 13 7 30 16 SE 1031,4 19 0,0
14.01.2018 15:00:00 -1,6 -5,4 18 10 30 16 ESE 1031,7 18 0,0
14.01.2018 14:00:00 -1,4 -5,4 19 11 34 18 SE 1032,1 17 0,0
14.01.2018 13:00:00 -0,7 -4,6 14 8 34 18 SE 1032,4 22 0,0
14.01.2018 12:00:00 -1,0 -5,8 19 10 35 19 SE 1033,1 21 0,0
14.01.2018 11:00:00 -0,3 -4,9 14 7 35 19 SSE 1033,4 20 0,0
14.01.2018 10:00:00 0,0 -4,8 16 8 34 19 SE 1033,4 20 0,0
14.01.2018 09:00:00 -0,1 -4,4 22 12 35 19 SE 1033,4 16 0,0
14.01.2018 08:00:00 -0,4 -5,4 16 8 35 19 SSE 1033,4 20 0,0
14.01.2018 07:00:00 -0,4 -5,8 17 9 34 18 SE 1033,5 18 0,0
14.01.2018 06:00:00 -0,1 -5,3 13 7 34 18 SSE 1033,5 20 0,0
14.01.2018 05:00:00 0,2 -4,8 18 10 31 17 ESE 1033,7 18 0,0
14.01.2018 04:00:00 0,4 -4,8 16 9 29 16 SE 1033,9 20 0,0
14.01.2018 03:00:00 0,3 -4,9 17 9 31 17 ESE 1034,1 20 0,0
14.01.2018 02:00:00 0,4 -4,6 20 11 32 18 ESE 1034,4 19 0,0
14.01.2018 01:00:00 0,5 -4,7 16 8 34 18 SE 1034,7 31 0,0
14.01.2018 00:00:00 0,4 -5,2 20 11 35 19 ESE 1035,1 23 0,0

tt = Température de l'air
td = dewpoint
ff = Vitesse du vent
fx = gusts
dd = Direction du vent
ppp = reduced air pressure
vv = visibility
rr = Quantités de précipitations

stations d'obs. à proximité